Tracking 20943 objects as of 16-Jul-2020
HD Live streaming from Space Station
objects crossing your sky now

ORBCOMM FM 32

Track ORBCOMM FM 32 now!
10-day predictions
ORBCOMM FM 32 is classified as:


NORAD ID: 25982
Int'l Code: 1999-065C
Perigee: 788.8 km
Apogee: 795.0 km
Inclination: 45.0 °
Period: 100.6 minutes
Semi major axis: 7162 km
RCS: 0.8421 m2 (medium)
Launch date: December 4, 1999
Source: ORBCOMM (ORB)
Launch site: AIR FORCE EASTERN TEST RANGE (AFETR)
aabbcc
Your satellite tracking list
Your tracking list is empty




NASA's NSSDC Master Catalog

Two Line Element Set (TLE):
1 25982U 99065C   20198.32256131 -.00000136  00000-0  14771-5 0  9994
2 25982  45.0193 271.2862 0004332 104.6396 255.4930 14.32084430 76953
Source of the keplerian elements: AFSPC